Retour au catalogue

STARLINK-6121

ActifCommunicationsVLEO
NORAD 56129·PAYLOAD·🇺🇸 United States

Lancé Mar 29, 2023 depuis Cape Canaveral Space Force Station

Loading…

Prochains Passages (prochaines 24 heures)

TLE

FraisSource: CelesTrak SupGP

Époque: Sep 15, 2026, 01:47 UTC

1 56129C 23046AN  26258.07479167  .00053802  00000+0  19486-2 0  2587
2 56129  42.9998 106.2134 0001348 267.1785 185.5868 15.27553593    12

Suivez STARLINK-6121 en temps réel avec AllMySat

Download on the App Store